Home   Weather   Aberdeen   Past weeks
Flag for United Kingdom

Past Weather in Aberdeen, Scotland, United Kingdom — Yesterday and Last 2 Weeks

Now
52 °F

Cool.


Feels Like: 49 °F
Forecast: N/A
Wind: 8 mph from Southwest

Location: Aberdeen / Dyce

Current Time: Mar 19, 2019 at 9:22:19 pm

Latest Report: Mar 19, 2019 at 8:50 pm


Visibility: N/A

Pressure: 30.09 "Hg

Humidity: 72%

Dew Point: 43 °F

Location of AberdeenLocation

Past Weather in Aberdeen — Graph

°F

Aberdeen Temperature Yesterday

Maximum temperature yesterday: 48 °F (at 11:50 am)
Minimum temperature yesterday: 34 °F (at 4:20 am)
Average temperature yesterday: 41 °F

High & Low Weather Summary for the Past Weeks

 TemperatureHumidityPressure
High57 °F (Mar 19, 12:50 pm)100% (Mar 6, 4:50 am)30.09 "Hg (Mar 6, 4:50 am)
Low28 °F (Mar 5, 7:20 am)42% (Mar 9, 12:20 pm)28.65 "Hg (Mar 12, 9:50 pm)
Average41 °F77%29.39 "Hg
* Reported Mar 4 8:20 pm — Mar 19 8:20 pm, Aberdeen. Weather by CustomWeather, © 2019

Note: Actual official high and low records may vary slightly from our data, if they occured in-between our weather recording intervals... More about our weather records

Advertising

Aberdeen Weather History for the Previous 24 Hours

Scroll right to see more
 ConditionsComfort  
Time TempWeatherWind HumidityBarometerVisibility
8:20 pm
Tue, Mar 19
52 °FCool.12 mph72%30.07 "HgN/A
7:50 pm52 °FCool.15 mph72%30.07 "HgN/A
7:20 pm52 °FCool.13 mph72%30.07 "HgN/A
6:50 pm52 °FCool.9 mph77%30.04 "HgN/A
6:20 pm52 °FCool.5 mph77%30.04 "HgN/A
5:50 pm54 °FCool.12 mph72%30.01 "HgN/A
5:20 pm54 °FCool.7 mph72%30.04 "HgN/A
4:50 pm55 °FCool.6 mph67%30.01 "HgN/A
4:20 pm55 °FCool.10 mph67%30.01 "HgN/A
3:50 pm57 °FCool.12 mph63%30.01 "HgN/A
3:20 pm57 °FCool.15 mph63%30.01 "HgN/A
2:50 pm57 °FCool.15 mph63%30.01 "HgN/A
1:50 pm57 °FPassing clouds.13 mph63%30.01 "HgN/A
1:20 pm55 °FCool.15 mph67%30.01 "HgN/A
12:50 pm57 °FRefreshingly cool.13 mph59%30.01 "HgN/A
12:20 pm55 °FCool.13 mph63%30.01 "HgN/A
11:50 am52 °FCool.9 mph72%30.04 "HgN/A
11:20 am50 °FCool.12 mph71%30.04 "HgN/A
10:50 am48 °FCool.10 mph76%30.04 "HgN/A
10:20 am50 °FCool.9 mph76%30.04 "HgN/A
9:50 am50 °FCool.8 mph71%30.04 "HgN/A
9:20 am48 °FCool.6 mph76%30.07 "HgN/A
8:50 am48 °FCool.3 mph76%30.07 "HgN/A
8:20 am45 °FQuite cool.8 mph81%30.07 "HgN/A
7:50 am43 °FQuite cool.3 mph81%30.07 "HgN/A
6:50 am37 °FPartly sunny.2 mph87%30.07 "HgN/A
6:20 am36 °FChilly.2 mph87%30.07 "HgN/A
5:50 am32 °FChilly.1 mph93%30.09 "HgN/A
5:20 am32 °FChilly.1 mph93%30.07 "HgN/A
4:50 am32 °FChilly.No wind93%30.07 "HgN/A
4:20 am30 °FChilly.1 mph93%30.09 "HgN/A
3:50 am30 °FChilly.2 mph93%30.09 "HgN/A
3:20 am36 °FChilly.2 mph81%30.09 "HgN/A
2:50 am32 °FChilly.1 mph93%30.09 "HgN/A
2:20 am36 °FChilly.2 mph87%30.09 "HgN/A
1:50 am36 °FChilly.1 mph87%30.09 "HgN/A
1:20 am36 °FChilly.2 mph93%30.09 "HgN/A
12:50 am36 °FPassing clouds.2 mph93%30.09 "HgN/A
12:20 am36 °FPassing clouds.3 mph93%30.09 "HgN/A
11:50 pm
Mon, Mar 18
36 °FChilly.2 mph93%30.09 "HgN/A
11:20 pm36 °FChilly.5 mph93%30.09 "HgN/A
10:50 pm36 °FChilly.3 mph93%30.09 "HgN/A
10:20 pm37 °FChilly.3 mph93%30.09 "HgN/A
9:50 pm37 °FChilly.3 mph87%30.09 "HgN/A
9:20 pm37 °FChilly.5 mph93%30.09 "HgN/A
Weather by CustomWeather, © 2019

See weather overview